Time,TemperatureF,DewpointF,PressureIn,WindDirection,WindDirectionDegrees,WindSpeedMPH,WindSpeedGustMPH,Humidity,HourlyPrecipIn,Conditions,Clouds,dailyrainin,SoftwareType,DateUTC
2013-03-03 00:01:00,43.0,32.0,29.96,North,350,5.0,8.0,64,0.00,,,0.00,Meteo,2013-03-03 05:01:00,
2013-03-03 00:03:00,43.0,32.0,29.96,North,355,3.0,5.0,64,0.00,,,0.00,Meteo,2013-03-03 05:03:00,
2013-03-03 00:04:00,43.0,32.0,29.96,North,355,2.0,3.0,65,0.00,,,0.00,Meteo,2013-03-03 05:04:00,
2013-03-03 00:05:00,43.0,32.0,29.96,North,355,2.0,3.0,65,0.00,,,0.00,Meteo,2013-03-03 05:05:00,
2013-03-03 00:10:00,43.0,32.0,29.96,NNW,344,1.0,4.0,65,0.00,,,0.00,Meteo,2013-03-03 05:10:00,
2013-03-03 00:15:00,42.0,31.0,29.96,North,350,3.0,5.0,66,0.00,,,0.00,Meteo,2013-03-03 05:15:00,
2013-03-03 00:20:00,42.0,31.0,29.96,North,352,6.0,7.0,64,0.00,,,0.00,Meteo,2013-03-03 05:20:00,
2013-03-03 00:25:00,42.0,30.0,29.96,NNW,345,2.0,3.0,63,0.00,,,0.00,Meteo,2013-03-03 05:25:00,
2013-03-03 00:30:00,42.0,31.0,29.96,NNW,347,3.0,5.0,64,0.00,,,0.00,Meteo,2013-03-03 05:30:00,
2013-03-03 00:35:00,42.0,30.0,29.96,NW,317,2.0,3.0,63,0.00,,,0.00,Meteo,2013-03-03 05:35:00,
2013-03-03 00:40:00,42.0,30.0,29.96,North,349,5.0,7.0,63,0.00,,,0.00,Meteo,2013-03-03 05:40:00,
2013-03-03 00:45:00,42.0,30.0,29.96,North,356,5.0,8.0,62,0.00,,,0.00,Meteo,2013-03-03 05:45:00,
2013-03-03 00:50:00,42.0,30.0,29.96,NNW,342,4.0,8.0,62,0.00,,,0.00,Meteo,2013-03-03 05:50:00,
2013-03-03 00:55:00,42.0,30.0,29.96,North,349,3.0,5.0,62,0.00,,,0.00,Meteo,2013-03-03 05:55:00,
2013-03-03 01:00:00,41.0,29.0,29.96,NNW,346,0.0,2.0,63,0.00,,,0.00,Meteo,2013-03-03 06:00:00,
2013-03-03 01:05:00,41.0,30.0,29.96,NNW,345,1.0,2.0,64,0.00,,,0.00,Meteo,2013-03-03 06:05:00,
2013-03-03 01:10:00,41.0,30.0,29.96,North,349,2.0,4.0,65,0.00,,,0.00,Meteo,2013-03-03 06:10:00,
2013-03-03 01:15:00,40.0,29.0,29.96,North,351,1.0,2.0,65,0.00,,,0.00,Meteo,2013-03-03 06:15:00,
2013-03-03 01:20:00,40.0,29.0,29.96,NNW,346,0.0,1.0,65,0.00,,,0.00,Meteo,2013-03-03 06:20:00,
2013-03-03 01:25:00,40.0,29.0,29.96,NNW,345,2.0,3.0,65,0.00,,,0.00,Meteo,2013-03-03 06:25:00,
2013-03-03 01:30:00,40.0,29.0,29.96,WNW,303,1.0,2.0,65,0.00,,,0.00,Meteo,2013-03-03 06:30:00,
2013-03-03 01:35:00,40.0,29.0,29.96,North,0,0.0,0.0,65,0.00,,,0.00,Meteo,2013-03-03 06:35:00,
2013-03-03 01:40:00,40.0,29.0,29.96,NNW,329,0.0,1.0,65,0.00,,,0.00,Meteo,2013-03-03 06:40:00,
2013-03-03 01:45:00,40.0,29.0,29.96,NNW,339,0.0,2.0,65,0.00,,,0.00,Meteo,2013-03-03 06:45:00,
2013-03-03 01:51:00,40.0,29.0,29.96,NNW,340,1.0,3.0,65,0.00,,,0.00,Meteo,2013-03-03 06:51:00,
2013-03-03 01:56:00,40.0,29.0,29.96,NNW,341,1.0,2.0,65,0.00,,,0.00,Meteo,2013-03-03 06:56:00,
2013-03-03 02:01:00,39.0,29.0,29.96,NNW,342,0.0,2.0,66,0.00,,,0.00,Meteo,2013-03-03 07:01:00,
2013-03-03 02:06:00,39.0,29.0,29.96,North,0,0.0,0.0,67,0.00,,,0.00,Meteo,2013-03-03 07:06:00,
2013-03-03 02:11:00,39.0,29.0,29.96,North,0,0.0,0.0,68,0.00,,,0.00,Meteo,2013-03-03 07:11:00,
2013-03-03 02:16:00,39.0,29.0,29.95,North,0,0.0,0.0,68,0.00,,,0.00,Meteo,2013-03-03 07:16:00,
2013-03-03 02:21:00,38.0,29.0,29.95,North,0,0.0,0.0,70,0.00,,,0.00,Meteo,2013-03-03 07:21:00,
2013-03-03 02:26:00,38.0,30.0,29.95,NNW,341,1.0,1.0,72,0.00,,,0.00,Meteo,2013-03-03 07:26:00,
2013-03-03 02:31:00,37.0,29.0,29.95,NNW,342,0.0,1.0,72,0.00,,,0.00,Meteo,2013-03-03 07:31:00,
2013-03-03 02:36:00,37.0,29.0,29.95,North,0,0.0,0.0,74,0.00,,,0.00,Meteo,2013-03-03 07:36:00,
2013-03-03 02:41:00,37.0,30.0,29.95,NNW,341,1.0,2.0,75,0.00,,,0.00,Meteo,2013-03-03 07:41:00,
2013-03-03 02:46:00,37.0,30.0,29.95,NNW,336,1.0,3.0,75,0.00,,,0.00,Meteo,2013-03-03 07:46:00,
2013-03-03 02:51:00,37.0,30.0,29.95,NW,316,0.0,1.0,75,0.00,,,0.00,Meteo,2013-03-03 07:51:00,
2013-03-03 02:56:00,37.0,30.0,29.95,NW,321,1.0,3.0,75,0.00,,,0.00,Meteo,2013-03-03 07:56:00,
2013-03-03 03:01:00,37.0,29.0,29.95,NNW,333,0.0,2.0,74,0.00,,,0.00,Meteo,2013-03-03 08:01:00,
2013-03-03 03:06:00,38.0,30.0,29.95,NNW,330,2.0,5.0,73,0.00,,,0.00,Meteo,2013-03-03 08:06:00,
2013-03-03 03:11:00,38.0,30.0,29.95,NW,320,1.0,2.0,72,0.00,,,0.00,Meteo,2013-03-03 08:11:00,
2013-03-03 03:16:00,38.0,29.0,29.94,NNW,340,2.0,5.0,70,0.00,,,0.00,Meteo,2013-03-03 08:16:00,
2013-03-03 03:21:00,39.0,30.0,29.94,NNW,329,1.0,3.0,69,0.00,,,0.00,Meteo,2013-03-03 08:21:00,
2013-03-03 03:26:00,39.0,29.0,29.94,NNW,330,1.0,4.0,68,0.00,,,0.00,Meteo,2013-03-03 08:26:00,
2013-03-03 03:31:00,39.0,29.0,29.94,NW,324,2.0,5.0,68,0.00,,,0.00,Meteo,2013-03-03 08:31:00,
2013-03-03 03:36:00,39.0,29.0,29.94,NW,304,1.0,3.0,68,0.00,,,0.00,Meteo,2013-03-03 08:36:00,
2013-03-03 03:41:00,39.0,29.0,29.94,NNW,347,2.0,5.0,68,0.00,,,0.00,Meteo,2013-03-03 08:41:00,
2013-03-03 03:46:00,39.0,29.0,29.94,NNW,339,0.0,2.0,67,0.00,,,0.00,Meteo,2013-03-03 08:46:00,
2013-03-03 03:51:00,38.0,28.0,29.94,WNW,295,1.0,3.0,68,0.00,,,0.00,Meteo,2013-03-03 08:51:00,
2013-03-03 03:56:00,38.0,28.0,29.94,WNW,297,1.0,2.0,68,0.00,,,0.00,Meteo,2013-03-03 08:56:00,
2013-03-03 04:01:00,38.0,28.0,29.94,WNW,296,0.0,1.0,68,0.00,,,0.00,Meteo,2013-03-03 09:01:00,
2013-03-03 04:06:00,38.0,29.0,29.94,WNW,296,0.0,1.0,69,0.00,,,0.00,Meteo,2013-03-03 09:06:00,
2013-03-03 04:11:00,38.0,29.0,29.94,West,277,0.0,1.0,70,0.00,,,0.00,Meteo,2013-03-03 09:11:00,
2013-03-03 04:16:00,38.0,29.0,29.95,WNW,288,0.0,1.0,70,0.00,,,0.00,Meteo,2013-03-03 09:16:00,
2013-03-03 04:21:00,38.0,29.0,29.95,WNW,302,1.0,5.0,71,0.00,,,0.00,Meteo,2013-03-03 09:21:00,
2013-03-03 04:26:00,38.0,29.0,29.95,WNW,298,2.0,5.0,71,0.00,,,0.00,Meteo,2013-03-03 09:26:00,
2013-03-03 04:31:00,38.0,29.0,29.95,WNW,303,2.0,4.0,70,0.00,,,0.00,Meteo,2013-03-03 09:31:00,
2013-03-03 04:36:00,38.0,29.0,29.95,NW,321,2.0,3.0,70,0.00,,,0.00,Meteo,2013-03-03 09:36:00,
2013-03-03 04:41:00,38.0,29.0,29.95,NW,321,2.0,4.0,70,0.00,,,0.00,Meteo,2013-03-03 09:41:00,
2013-03-03 04:46:00,38.0,29.0,29.95,NW,314,1.0,2.0,70,0.00,,,0.00,Meteo,2013-03-03 09:46:00,
2013-03-03 04:51:00,38.0,29.0,29.95,NNW,331,1.0,4.0,70,0.00,,,0.00,Meteo,2013-03-03 09:51:00,
2013-03-03 04:56:00,38.0,29.0,29.95,NNW,329,2.0,3.0,70,0.00,,,0.00,Meteo,2013-03-03 09:56:00,
2013-03-03 05:01:00,38.0,29.0,29.95,NNW,346,1.0,5.0,70,0.00,,,0.00,Meteo,2013-03-03 10:01:00,
2013-03-03 05:06:00,38.0,29.0,29.95,NNW,347,3.0,5.0,70,0.00,,,0.00,Meteo,2013-03-03 10:06:00,
2013-03-03 05:12:00,38.0,29.0,29.95,NNW,346,2.0,3.0,71,0.00,,,0.00,Meteo,2013-03-03 10:12:00,
2013-03-03 05:17:00,38.0,29.0,29.94,NNW,346,0.0,1.0,71,0.00,,,0.00,Meteo,2013-03-03 10:17:00,
2013-03-03 05:22:00,38.0,30.0,29.94,NNW,337,2.0,5.0,72,0.00,,,0.00,Meteo,2013-03-03 10:22:00,
2013-03-03 05:27:00,38.0,30.0,29.94,NW,316,2.0,3.0,72,0.00,,,0.00,Meteo,2013-03-03 10:27:00,
2013-03-03 05:32:00,38.0,30.0,29.95,NW,307,2.0,3.0,72,0.00,,,0.00,Meteo,2013-03-03 10:32:00,
2013-03-03 05:37:00,38.0,30.0,29.95,WNW,288,1.0,3.0,73,0.00,,,0.00,Meteo,2013-03-03 10:37:00,
2013-03-03 05:42:00,38.0,30.0,29.95,WNW,301,2.0,5.0,73,0.00,,,0.00,Meteo,2013-03-03 10:42:00,
2013-03-03 05:47:00,38.0,30.0,29.97,WNW,303,2.0,5.0,72,0.00,,,0.00,Meteo,2013-03-03 10:47:00,
2013-03-03 05:52:00,38.0,30.0,29.97,WNW,283,1.0,3.0,72,0.00,,,0.00,Meteo,2013-03-03 10:52:00,
2013-03-03 05:57:00,38.0,30.0,29.97,WNW,297,1.0,3.0,72,0.00,,,0.00,Meteo,2013-03-03 10:57:00,
2013-03-03 06:02:00,38.0,30.0,29.97,NW,321,1.0,2.0,73,0.00,,,0.00,Meteo,2013-03-03 11:02:00,
2013-03-03 06:07:00,38.0,30.0,29.97,NNW,329,2.0,3.0,72,0.00,,,0.00,Meteo,2013-03-03 11:07:00,
2013-03-03 06:12:00,38.0,30.0,29.97,NNW,328,2.0,5.0,72,0.00,,,0.00,Meteo,2013-03-03 11:12:00,
2013-03-03 06:17:00,38.0,30.0,29.96,WNW,288,1.0,4.0,72,0.00,,,0.00,Meteo,2013-03-03 11:17:00,
2013-03-03 06:22:00,38.0,30.0,29.96,WNW,293,0.0,1.0,72,0.00,,,0.00,Meteo,2013-03-03 11:22:00,
2013-03-03 06:27:00,38.0,30.0,29.96,WNW,287,1.0,3.0,72,0.00,,,0.00,Meteo,2013-03-03 11:27:00,
2013-03-03 06:32:00,38.0,30.0,29.96,West,277,1.0,2.0,72,0.00,,,0.00,Meteo,2013-03-03 11:32:00,
2013-03-03 06:37:00,38.0,30.0,29.96,NW,306,1.0,3.0,73,0.00,,,0.00,Meteo,2013-03-03 11:37:00,
2013-03-03 06:42:00,37.0,29.0,29.96,WNW,302,1.0,2.0,73,0.00,,,0.00,Meteo,2013-03-03 11:42:00,
2013-03-03 06:47:00,37.0,29.0,29.97,NW,311,0.0,1.0,73,0.00,,,0.00,Meteo,2013-03-03 11:47:00,
2013-03-03 06:52:00,37.0,29.0,29.97,NW,306,1.0,3.0,74,0.00,,,0.00,Meteo,2013-03-03 11:52:00,
2013-03-03 06:57:00,37.0,29.0,29.97,WNW,302,1.0,2.0,74,0.00,,,0.00,Meteo,2013-03-03 11:57:00,
2013-03-03 07:02:00,37.0,29.0,29.98,WNW,299,1.0,2.0,74,0.00,,,0.00,Meteo,2013-03-03 12:02:00,
2013-03-03 07:07:00,37.0,29.0,29.98,WNW,292,2.0,3.0,74,0.00,,,0.00,Meteo,2013-03-03 12:07:00,
2013-03-03 07:12:00,37.0,30.0,29.98,NNW,329,1.0,2.0,75,0.00,,,0.00,Meteo,2013-03-03 12:12:00,
2013-03-03 07:17:00,37.0,30.0,29.99,NW,305,2.0,6.0,75,0.00,,,0.00,Meteo,2013-03-03 12:17:00,
2013-03-03 07:22:00,38.0,30.0,29.99,NW,308,3.0,5.0,74,0.00,,,0.00,Meteo,2013-03-03 12:22:00,
2013-03-03 07:27:00,38.0,30.0,29.99,NNW,348,0.0,3.0,73,0.00,,,0.00,Meteo,2013-03-03 12:27:00,
2013-03-03 07:32:00,38.0,30.0,29.99,NNW,327,3.0,6.0,72,0.00,,,0.00,Meteo,2013-03-03 12:32:00,
2013-03-03 07:37:00,39.0,30.0,29.99,NW,319,3.0,7.0,70,0.00,,,0.00,Meteo,2013-03-03 12:37:00,
2013-03-03 07:42:00,39.0,30.0,29.99,NW,321,2.0,4.0,70,0.00,,,0.00,Meteo,2013-03-03 12:42:00,
2013-03-03 07:47:00,39.0,30.0,29.99,NNW,332,3.0,6.0,70,0.00,,,0.00,Meteo,2013-03-03 12:47:00,
2013-03-03 07:52:00,39.0,30.0,29.99,NW,321,4.0,10.0,70,0.00,,,0.00,Meteo,2013-03-03 12:52:00,
2013-03-03 07:57:00,40.0,31.0,29.99,North,351,6.0,7.0,69,0.00,,,0.00,Meteo,2013-03-03 12:57:00,
2013-03-03 08:02:00,40.0,31.0,29.99,NNW,345,7.0,10.0,69,0.00,,,0.00,Meteo,2013-03-03 13:02:00,
2013-03-03 08:07:00,40.0,31.0,29.99,North,358,2.0,4.0,70,0.00,,,0.00,Meteo,2013-03-03 13:07:00,
2013-03-03 08:12:00,40.0,31.0,29.99,NNW,336,5.0,11.0,69,0.00,,,0.00,Meteo,2013-03-03 13:12:00,
2013-03-03 08:17:00,40.0,30.0,30.00,NW,321,4.0,10.0,67,0.00,,,0.00,Meteo,2013-03-03 13:17:00,
2013-03-03 08:22:00,41.0,31.0,30.00,NNW,333,3.0,6.0,67,0.00,,,0.00,Meteo,2013-03-03 13:22:00,
2013-03-03 08:27:00,41.0,31.0,30.00,WNW,295,3.0,8.0,67,0.00,,,0.00,Meteo,2013-03-03 13:27:00,
2013-03-03 08:32:00,41.0,31.0,30.00,NW,305,2.0,5.0,66,0.00,,,0.00,Meteo,2013-03-03 13:32:00,
2013-03-03 08:37:00,41.0,30.0,30.00,NNW,344,5.0,10.0,65,0.00,,,0.00,Meteo,2013-03-03 13:37:00,
2013-03-03 08:42:00,41.0,30.0,30.00,NW,317,5.0,8.0,64,0.00,,,0.00,Meteo,2013-03-03 13:42:00,
2013-03-03 08:47:00,42.0,30.0,30.00,NNW,343,6.0,13.0,63,0.00,,,0.00,Meteo,2013-03-03 13:47:00,
2013-03-03 08:52:00,42.0,30.0,30.00,NNW,347,2.0,5.0,63,0.00,,,0.00,Meteo,2013-03-03 13:52:00,
2013-03-03 08:57:00,42.0,30.0,30.00,NNW,348,6.0,11.0,62,0.00,,,0.00,Meteo,2013-03-03 13:57:00,
2013-03-03 09:02:00,42.0,30.0,30.00,North,350,6.0,10.0,61,0.00,,,0.00,Meteo,2013-03-03 14:02:00,
2013-03-03 09:07:00,42.0,30.0,30.00,North,352,4.0,7.0,62,0.00,,,0.00,Meteo,2013-03-03 14:07:00,
2013-03-03 09:12:00,42.0,30.0,30.00,NNW,338,4.0,7.0,61,0.00,,,0.00,Meteo,2013-03-03 14:12:00,
2013-03-03 09:17:00,43.0,30.0,29.99,North,354,6.0,8.0,61,0.00,,,0.00,Meteo,2013-03-03 14:17:00,
2013-03-03 09:22:00,43.0,30.0,29.99,North,351,5.0,8.0,61,0.00,,,0.00,Meteo,2013-03-03 14:22:00,
2013-03-03 09:27:00,44.0,31.0,29.99,NW,312,5.0,10.0,59,0.00,,,0.00,Meteo,2013-03-03 14:27:00,
2013-03-03 09:32:00,44.0,29.0,30.00,WNW,285,1.0,5.0,56,0.00,,,0.00,Meteo,2013-03-03 14:32:00,
2013-03-03 09:37:00,45.0,30.0,30.00,NW,304,5.0,11.0,55,0.00,,,0.00,Meteo,2013-03-03 14:37:00,
2013-03-03 09:42:00,45.0,29.0,30.00,WNW,294,6.0,12.0,53,0.00,,,0.00,Meteo,2013-03-03 14:42:00,
2013-03-03 09:47:00,45.0,29.0,30.00,NW,305,4.0,7.0,54,0.00,,,0.00,Meteo,2013-03-03 14:47:00,
2013-03-03 09:52:00,46.0,30.0,30.00,WNW,296,5.0,10.0,54,0.00,,,0.00,Meteo,2013-03-03 14:52:00,
2013-03-03 09:57:00,46.0,30.0,30.00,WNW,303,5.0,10.0,53,0.00,,,0.00,Meteo,2013-03-03 14:57:00,
2013-03-03 10:02:00,47.0,30.0,30.00,NW,318,6.0,11.0,51,0.00,,,0.00,Meteo,2013-03-03 15:02:00,
2013-03-03 10:08:00,46.0,29.0,30.00,NNW,329,2.0,5.0,51,0.00,,,0.00,Meteo,2013-03-03 15:08:00,
2013-03-03 10:13:00,47.0,28.0,30.00,NW,314,5.0,11.0,48,0.00,,,0.00,Meteo,2013-03-03 15:13:00,
2013-03-03 10:18:00,47.0,28.0,30.00,NW,307,6.0,14.0,48,0.00,,,0.00,Meteo,2013-03-03 15:18:00,
2013-03-03 10:23:00,48.0,29.0,30.00,NW,311,6.0,13.0,48,0.00,,,0.00,Meteo,2013-03-03 15:23:00,
2013-03-03 10:28:00,48.0,30.0,30.00,WNW,296,5.0,11.0,49,0.00,,,0.00,Meteo,2013-03-03 15:28:00,
2013-03-03 10:33:00,49.0,30.0,29.99,WNW,291,7.0,12.0,47,0.00,,,0.00,Meteo,2013-03-03 15:33:00,
2013-03-03 10:38:00,49.0,29.0,29.99,WNW,302,7.0,12.0,46,0.00,,,0.00,Meteo,2013-03-03 15:38:00,
2013-03-03 10:43:00,50.0,31.0,29.99,WNW,302,6.0,12.0,47,0.00,,,0.00,Meteo,2013-03-03 15:43:00,
2013-03-03 10:49:00,50.0,30.0,29.99,West,276,4.0,13.0,45,0.00,,,0.00,Meteo,2013-03-03 15:49:00,
2013-03-03 10:54:00,50.0,30.0,29.99,NNW,330,4.0,8.0,45,0.00,,,0.00,Meteo,2013-03-03 15:54:00,
2013-03-03 10:59:00,50.0,30.0,29.99,NW,326,7.0,17.0,45,0.00,,,0.00,Meteo,2013-03-03 15:59:00,
2013-03-03 11:04:00,50.0,29.0,30.00,NW,310,5.0,14.0,44,0.00,,,0.00,Meteo,2013-03-03 16:04:00,
2013-03-03 11:09:00,50.0,30.0,30.00,WNW,295,7.0,14.0,46,0.00,,,0.00,Meteo,2013-03-03 16:09:00,
2013-03-03 11:14:00,50.0,30.0,30.00,NW,311,8.0,17.0,45,0.00,,,0.00,Meteo,2013-03-03 16:14:00,
2013-03-03 11:19:00,51.0,30.0,29.99,WNW,295,6.0,11.0,44,0.00,,,0.00,Meteo,2013-03-03 16:19:00,
2013-03-03 11:25:00,51.0,30.0,29.99,NW,315,3.0,6.0,45,0.00,,,0.00,Meteo,2013-03-03 16:25:00,
2013-03-03 11:30:00,51.0,30.0,29.99,WNW,287,5.0,8.0,45,0.00,,,0.00,Meteo,2013-03-03 16:30:00,
2013-03-03 11:35:00,52.0,31.0,29.98,WNW,293,10.0,17.0,44,0.00,,,0.00,Meteo,2013-03-03 16:35:00,
2013-03-03 11:40:00,53.0,32.0,29.98,WNW,303,6.0,8.0,44,0.00,,,0.00,Meteo,2013-03-03 16:40:00,
2013-03-03 11:45:00,52.0,30.0,29.99,NW,326,6.0,10.0,43,0.00,,,0.00,Meteo,2013-03-03 16:45:00,
2013-03-03 11:50:00,52.0,31.0,29.99,WNW,296,5.0,8.0,45,0.00,,,0.00,Meteo,2013-03-03 16:50:00,
2013-03-03 11:55:00,52.0,30.0,29.99,WNW,285,6.0,12.0,43,0.00,,,0.00,Meteo,2013-03-03 16:55:00,
2013-03-03 12:00:00,52.0,29.0,29.98,NW,316,8.0,17.0,41,0.00,,,0.00,Meteo,2013-03-03 17:00:00,
2013-03-03 12:05:00,52.0,30.0,29.98,WNW,289,11.0,17.0,42,0.00,,,0.00,Meteo,2013-03-03 17:05:00,
2013-03-03 12:10:00,53.0,30.0,29.98,WNW,286,12.0,25.0,41,0.00,,,0.00,Meteo,2013-03-03 17:10:00,
2013-03-03 12:15:00,53.0,30.0,29.98,West,277,12.0,19.0,41,0.00,,,0.00,Meteo,2013-03-03 17:15:00,
2013-03-03 12:20:00,53.0,30.0,29.98,NNW,337,6.0,12.0,41,0.00,,,0.00,Meteo,2013-03-03 17:20:00,
2013-03-03 12:25:00,53.0,30.0,29.98,West,277,7.0,20.0,41,0.00,,,0.00,Meteo,2013-03-03 17:25:00,
2013-03-03 12:30:00,54.0,30.0,29.98,NNW,336,10.0,20.0,40,0.00,,,0.00,Meteo,2013-03-03 17:30:00,
2013-03-03 12:36:00,53.0,31.0,29.97,West,281,8.0,14.0,42,0.00,,,0.00,Meteo,2013-03-03 17:36:00,
2013-03-03 12:42:00,53.0,30.0,29.97,NNW,340,8.0,16.0,41,0.00,,,0.00,Meteo,2013-03-03 17:42:00,
2013-03-03 12:47:00,53.0,31.0,29.96,NW,320,6.0,12.0,42,0.00,,,0.00,Meteo,2013-03-03 17:47:00,
2013-03-03 12:52:00,53.0,31.0,29.96,NW,318,7.0,17.0,42,0.00,,,0.00,Meteo,2013-03-03 17:52:00,
2013-03-03 12:57:00,52.0,31.0,29.96,West,272,7.0,14.0,44,0.00,,,0.00,Meteo,2013-03-03 17:57:00,
2013-03-03 13:02:00,53.0,31.0,29.96,West,277,10.0,16.0,42,0.00,,,0.00,Meteo,2013-03-03 18:02:00,
2013-03-03 13:07:00,53.0,30.0,29.96,NW,313,7.0,16.0,41,0.00,,,0.00,Meteo,2013-03-03 18:07:00,
2013-03-03 13:12:00,54.0,30.0,29.96,NW,309,6.0,17.0,40,0.00,,,0.00,Meteo,2013-03-03 18:12:00,
2013-03-03 13:17:00,53.0,30.0,29.95,WNW,300,12.0,22.0,41,0.00,,,0.00,Meteo,2013-03-03 18:17:00,
2013-03-03 13:22:00,52.0,30.0,29.95,West,276,6.0,16.0,42,0.00,,,0.00,Meteo,2013-03-03 18:22:00,
2013-03-03 13:27:00,53.0,30.0,29.95,West,280,10.0,20.0,41,0.00,,,0.00,Meteo,2013-03-03 18:27:00,
2013-03-03 13:33:00,53.0,31.0,29.95,WNW,298,10.0,16.0,42,0.00,,,0.00,Meteo,2013-03-03 18:33:00,
2013-03-03 13:38:00,52.0,30.0,29.95,WNW,301,9.0,20.0,43,0.00,,,0.00,Meteo,2013-03-03 18:38:00,
2013-03-03 13:43:00,52.0,30.0,29.95,NW,322,5.0,8.0,42,0.00,,,0.00,Meteo,2013-03-03 18:43:00,
2013-03-03 13:48:00,53.0,31.0,29.95,NW,316,10.0,20.0,43,0.00,,,0.00,Meteo,2013-03-03 18:48:00,
2013-03-03 13:53:00,53.0,30.0,29.95,WNW,287,12.0,21.0,41,0.00,,,0.00,Meteo,2013-03-03 18:53:00,
2013-03-03 13:58:00,53.0,31.0,29.95,West,277,6.0,10.0,42,0.00,,,0.00,Meteo,2013-03-03 18:58:00,
2013-03-03 14:03:00,53.0,30.0,29.94,WNW,289,13.0,25.0,41,0.00,,,0.00,Meteo,2013-03-03 19:03:00,
2013-03-03 14:08:00,53.0,30.0,29.94,WNW,283,10.0,18.0,41,0.00,,,0.00,Meteo,2013-03-03 19:08:00,
2013-03-03 14:13:00,54.0,30.0,29.94,West,275,9.0,18.0,39,0.00,,,0.00,Meteo,2013-03-03 19:13:00,
2013-03-03 14:18:00,54.0,30.0,29.94,WNW,284,12.0,21.0,40,0.00,,,0.00,Meteo,2013-03-03 19:18:00,
2013-03-03 14:23:00,53.0,30.0,29.94,WNW,284,9.0,16.0,41,0.00,,,0.00,Meteo,2013-03-03 19:23:00,
2013-03-03 14:28:00,53.0,31.0,29.94,WNW,285,9.0,17.0,42,0.00,,,0.00,Meteo,2013-03-03 19:28:00,
2013-03-03 14:33:00,53.0,31.0,29.94,WSW,258,10.0,15.0,42,0.00,,,0.00,Meteo,2013-03-03 19:33:00,
2013-03-03 14:38:00,54.0,31.0,29.94,WNW,299,7.0,14.0,42,0.00,,,0.00,Meteo,2013-03-03 19:38:00,
2013-03-03 14:43:00,54.0,32.0,29.94,West,271,12.0,17.0,43,0.00,,,0.00,Meteo,2013-03-03 19:43:00,
2013-03-03 14:48:00,53.0,31.0,29.94,WNW,294,7.0,14.0,42,0.00,,,0.00,Meteo,2013-03-03 19:48:00,
2013-03-03 14:53:00,52.0,31.0,29.94,NW,324,4.0,8.0,44,0.00,,,0.00,Meteo,2013-03-03 19:53:00,
2013-03-03 14:58:00,53.0,32.0,29.94,WNW,285,6.0,18.0,44,0.00,,,0.00,Meteo,2013-03-03 19:58:00,
2013-03-03 15:03:00,53.0,31.0,29.94,WNW,299,9.0,16.0,42,0.00,,,0.00,Meteo,2013-03-03 20:03:00,
2013-03-03 15:08:00,53.0,30.0,29.94,WNW,286,8.0,19.0,41,0.00,,,0.00,Meteo,2013-03-03 20:08:00,
2013-03-03 15:14:00,53.0,32.0,29.94,WNW,283,8.0,14.0,44,0.00,,,0.00,Meteo,2013-03-03 20:14:00,
2013-03-03 15:19:00,53.0,32.0,29.94,NW,307,8.0,13.0,44,0.00,,,0.00,Meteo,2013-03-03 20:19:00,
2013-03-03 15:24:00,53.0,32.0,29.94,NW,311,5.0,12.0,44,0.00,,,0.00,Meteo,2013-03-03 20:24:00,
2013-03-03 15:29:00,52.0,31.0,29.94,NNW,328,5.0,13.0,45,0.00,,,0.00,Meteo,2013-03-03 20:29:00,
2013-03-03 15:34:00,52.0,31.0,29.94,NW,306,6.0,12.0,44,0.00,,,0.00,Meteo,2013-03-03 20:34:00,
2013-03-03 15:40:00,52.0,31.0,29.94,WNW,293,7.0,15.0,45,0.00,,,0.00,Meteo,2013-03-03 20:40:00,
2013-03-03 15:45:00,51.0,30.0,29.95,WNW,290,6.0,11.0,44,0.00,,,0.00,Meteo,2013-03-03 20:45:00,
2013-03-03 15:50:00,51.0,31.0,29.95,West,277,9.0,14.0,46,0.00,,,0.00,Meteo,2013-03-03 20:50:00,
2013-03-03 15:55:00,51.0,31.0,29.95,WNW,295,9.0,20.0,46,0.00,,,0.00,Meteo,2013-03-03 20:55:00,
2013-03-03 16:00:00,51.0,31.0,29.95,NW,304,8.0,13.0,46,0.00,,,0.00,Meteo,2013-03-03 21:00:00,
2013-03-03 16:05:00,51.0,31.0,29.95,West,279,7.0,17.0,47,0.00,,,0.00,Meteo,2013-03-03 21:05:00,
2013-03-03 16:10:00,51.0,30.0,29.95,West,277,7.0,11.0,45,0.00,,,0.00,Meteo,2013-03-03 21:10:00,
2013-03-03 16:16:00,51.0,31.0,29.95,NW,304,5.0,14.0,46,0.00,,,0.00,Meteo,2013-03-03 21:16:00,
2013-03-03 16:21:00,51.0,30.0,29.95,WNW,302,6.0,15.0,45,0.00,,,0.00,Meteo,2013-03-03 21:21:00,
2013-03-03 16:26:00,51.0,30.0,29.95,WNW,292,8.0,17.0,45,0.00,,,0.00,Meteo,2013-03-03 21:26:00,
2013-03-03 16:31:00,51.0,31.0,29.95,WNW,291,5.0,10.0,46,0.00,,,0.00,Meteo,2013-03-03 21:31:00,
2013-03-03 16:36:00,51.0,31.0,29.95,WNW,283,10.0,17.0,46,0.00,,,0.00,Meteo,2013-03-03 21:36:00,
2013-03-03 16:41:00,51.0,30.0,29.95,WNW,293,6.0,11.0,45,0.00,,,0.00,Meteo,2013-03-03 21:41:00,
2013-03-03 16:46:00,51.0,30.0,29.94,WNW,293,8.0,17.0,44,0.00,,,0.00,Meteo,2013-03-03 21:46:00,
2013-03-03 16:51:00,51.0,30.0,29.94,WNW,289,5.0,12.0,44,0.00,,,0.00,Meteo,2013-03-03 21:51:00,
2013-03-03 16:56:00,51.0,30.0,29.94,NW,306,3.0,5.0,45,0.00,,,0.00,Meteo,2013-03-03 21:56:00,
2013-03-03 17:01:00,50.0,30.0,29.95,WNW,298,9.0,16.0,45,0.00,,,0.00,Meteo,2013-03-03 22:01:00,
2013-03-03 17:06:00,50.0,30.0,29.95,NW,308,6.0,12.0,46,0.00,,,0.00,Meteo,2013-03-03 22:06:00,
2013-03-03 17:11:00,50.0,30.0,29.95,WNW,283,9.0,17.0,46,0.00,,,0.00,Meteo,2013-03-03 22:11:00,
2013-03-03 17:16:00,50.0,29.0,29.96,West,276,12.0,19.0,44,0.00,,,0.00,Meteo,2013-03-03 22:16:00,
2013-03-03 17:21:00,50.0,30.0,29.96,West,265,7.0,13.0,45,0.00,,,0.00,Meteo,2013-03-03 22:21:00,
2013-03-03 17:26:00,50.0,30.0,29.96,West,277,14.0,21.0,45,0.00,,,0.00,Meteo,2013-03-03 22:26:00,
2013-03-03 17:31:00,50.0,30.0,29.96,NW,308,7.0,15.0,46,0.00,,,0.00,Meteo,2013-03-03 22:31:00,
2013-03-03 17:36:00,49.0,29.0,29.96,West,266,8.0,13.0,46,0.00,,,0.00,Meteo,2013-03-03 22:36:00,
2013-03-03 17:41:00,49.0,30.0,29.96,West,279,6.0,10.0,47,0.00,,,0.00,Meteo,2013-03-03 22:41:00,
2013-03-03 17:46:00,49.0,30.0,29.97,WNW,296,4.0,10.0,47,0.00,,,0.00,Meteo,2013-03-03 22:46:00,
2013-03-03 17:51:00,49.0,30.0,29.97,West,264,7.0,13.0,48,0.00,,,0.00,Meteo,2013-03-03 22:51:00,
2013-03-03 17:57:00,49.0,30.0,29.97,WNW,284,6.0,12.0,47,0.00,,,0.00,Meteo,2013-03-03 22:57:00,
2013-03-03 18:02:00,49.0,30.0,29.97,WNW,296,4.0,11.0,47,0.00,,,0.00,Meteo,2013-03-03 23:02:00,
2013-03-03 18:07:00,49.0,31.0,29.97,WNW,283,2.0,3.0,49,0.00,,,0.00,Meteo,2013-03-03 23:07:00,
2013-03-03 18:12:00,48.0,30.0,29.97,WNW,297,8.0,13.0,49,0.00,,,0.00,Meteo,2013-03-03 23:12:00,
2013-03-03 18:17:00,48.0,31.0,29.98,WNW,284,6.0,13.0,51,0.00,,,0.00,Meteo,2013-03-03 23:17:00,
2013-03-03 18:22:00,48.0,30.0,29.98,WNW,300,5.0,8.0,50,0.00,,,0.00,Meteo,2013-03-03 23:22:00,
2013-03-03 18:27:00,48.0,30.0,29.98,WNW,302,5.0,12.0,50,0.00,,,0.00,Meteo,2013-03-03 23:27:00,
2013-03-03 18:32:00,48.0,31.0,29.99,NW,313,5.0,10.0,51,0.00,,,0.00,Meteo,2013-03-03 23:32:00,
2013-03-03 18:37:00,47.0,30.0,29.99,WNW,289,8.0,13.0,51,0.00,,,0.00,Meteo,2013-03-03 23:37:00,
2013-03-03 18:42:00,47.0,31.0,29.99,WNW,297,9.0,13.0,53,0.00,,,0.00,Meteo,2013-03-03 23:42:00,
2013-03-03 18:47:00,47.0,30.0,29.99,WNW,292,3.0,7.0,52,0.00,,,0.00,Meteo,2013-03-03 23:47:00,
2013-03-03 18:52:00,47.0,31.0,29.99,WNW,283,2.0,5.0,53,0.00,,,0.00,Meteo,2013-03-03 23:52:00,
2013-03-03 18:57:00,47.0,31.0,29.99,WNW,287,4.0,12.0,53,0.00,,,0.00,Meteo,2013-03-03 23:57:00,
2013-03-03 19:02:00,47.0,31.0,30.00,WNW,282,3.0,8.0,53,0.00,,,0.00,Meteo,2013-03-04 00:02:00,
2013-03-03 19:07:00,47.0,31.0,30.00,WNW,288,3.0,8.0,53,0.00,,,0.00,Meteo,2013-03-04 00:07:00,
2013-03-03 19:12:00,46.0,30.0,30.00,West,277,5.0,8.0,53,0.00,,,0.00,Meteo,2013-03-04 00:12:00,
2013-03-03 19:17:00,46.0,30.0,30.01,WNW,298,0.0,2.0,53,0.00,,,0.00,Meteo,2013-03-04 00:17:00,
2013-03-03 19:22:00,46.0,30.0,30.01,WNW,301,4.0,7.0,54,0.00,,,0.00,Meteo,2013-03-04 00:22:00,
2013-03-03 19:27:00,46.0,30.0,30.01,WNW,301,3.0,8.0,54,0.00,,,0.00,Meteo,2013-03-04 00:27:00,
2013-03-03 19:32:00,46.0,30.0,30.02,West,280,3.0,5.0,54,0.00,,,0.00,Meteo,2013-03-04 00:32:00,
2013-03-03 19:37:00,46.0,31.0,30.02,WNW,288,6.0,11.0,55,0.00,,,0.00,Meteo,2013-03-04 00:37:00,
2013-03-03 19:42:00,46.0,31.0,30.02,WNW,297,1.0,2.0,56,0.00,,,0.00,Meteo,2013-03-04 00:42:00,
2013-03-03 19:47:00,46.0,31.0,30.02,WNW,286,5.0,10.0,56,0.00,,,0.00,Meteo,2013-03-04 00:47:00,
2013-03-03 19:52:00,46.0,32.0,30.02,NW,306,5.0,10.0,57,0.00,,,0.00,Meteo,2013-03-04 00:52:00,
2013-03-03 19:57:00,46.0,32.0,30.02,NW,306,4.0,6.0,58,0.00,,,0.00,Meteo,2013-03-04 00:57:00,
2013-03-03 20:02:00,46.0,32.0,30.03,West,271,4.0,6.0,58,0.00,,,0.00,Meteo,2013-03-04 01:02:00,
2013-03-03 20:07:00,46.0,32.0,30.03,West,281,4.0,7.0,59,0.00,,,0.00,Meteo,2013-03-04 01:07:00,
2013-03-03 20:12:00,45.0,32.0,30.03,WNW,285,6.0,10.0,59,0.00,,,0.00,Meteo,2013-03-04 01:12:00,
2013-03-03 20:17:00,45.0,32.0,30.04,WNW,287,4.0,6.0,60,0.00,,,0.00,Meteo,2013-03-04 01:17:00,
2013-03-03 20:22:00,45.0,32.0,30.04,West,271,7.0,9.0,60,0.00,,,0.00,Meteo,2013-03-04 01:22:00,
2013-03-03 20:27:00,45.0,32.0,30.04,WNW,292,5.0,8.0,60,0.00,,,0.00,Meteo,2013-03-04 01:27:00,
2013-03-03 20:32:00,45.0,32.0,30.04,West,279,3.0,7.0,59,0.00,,,0.00,Meteo,2013-03-04 01:32:00,
2013-03-03 20:37:00,45.0,32.0,30.04,West,273,4.0,6.0,60,0.00,,,0.00,Meteo,2013-03-04 01:37:00,
2013-03-03 20:42:00,44.0,31.0,30.04,WNW,288,7.0,16.0,61,0.00,,,0.00,Meteo,2013-03-04 01:42:00,
2013-03-03 20:47:00,44.0,31.0,30.05,West,270,4.0,7.0,60,0.00,,,0.00,Meteo,2013-03-04 01:47:00,
2013-03-03 20:52:00,44.0,31.0,30.05,WNW,293,4.0,8.0,60,0.00,,,0.00,Meteo,2013-03-04 01:52:00,
2013-03-03 20:57:00,44.0,31.0,30.05,West,278,8.0,12.0,60,0.00,,,0.00,Meteo,2013-03-04 01:57:00,
2013-03-03 21:02:00,44.0,31.0,30.05,WNW,287,5.0,8.0,61,0.00,,,0.00,Meteo,2013-03-04 02:02:00,
2013-03-03 21:07:00,44.0,31.0,30.05,West,269,10.0,16.0,61,0.00,,,0.00,Meteo,2013-03-04 02:07:00,
2013-03-03 21:12:00,44.0,31.0,30.05,WNW,290,4.0,7.0,61,0.00,,,0.00,Meteo,2013-03-04 02:12:00,
2013-03-03 21:17:00,44.0,31.0,30.06,West,278,3.0,6.0,61,0.00,,,0.00,Meteo,2013-03-04 02:17:00,
2013-03-03 21:22:00,44.0,32.0,30.06,West,262,2.0,4.0,62,0.00,,,0.00,Meteo,2013-03-04 02:22:00,
2013-03-03 21:27:00,44.0,32.0,30.06,WNW,293,3.0,9.0,62,0.00,,,0.00,Meteo,2013-03-04 02:27:00,
2013-03-03 21:32:00,44.0,32.0,30.06,WNW,290,2.0,3.0,63,0.00,,,0.00,Meteo,2013-03-04 02:32:00,
2013-03-03 21:37:00,43.0,31.0,30.06,WNW,285,3.0,7.0,63,0.00,,,0.00,Meteo,2013-03-04 02:37:00,
2013-03-03 21:42:00,43.0,31.0,30.06,WNW,296,5.0,8.0,63,0.00,,,0.00,Meteo,2013-03-04 02:42:00,
2013-03-03 21:47:00,43.0,31.0,30.07,WNW,285,4.0,7.0,63,0.00,,,0.00,Meteo,2013-03-04 02:47:00,
2013-03-03 21:52:00,43.0,31.0,30.07,WNW,293,2.0,6.0,63,0.00,,,0.00,Meteo,2013-03-04 02:52:00,
2013-03-03 21:57:00,43.0,32.0,30.07,West,281,3.0,6.0,64,0.00,,,0.00,Meteo,2013-03-04 02:57:00,
2013-03-03 22:02:00,43.0,32.0,30.08,WNW,294,7.0,11.0,64,0.00,,,0.00,Meteo,2013-03-04 03:02:00,
2013-03-03 22:07:00,43.0,32.0,30.08,WNW,282,8.0,14.0,64,0.00,,,0.00,Meteo,2013-03-04 03:07:00,
2013-03-03 22:12:00,43.0,31.0,30.08,WNW,296,3.0,7.0,63,0.00,,,0.00,Meteo,2013-03-04 03:12:00,
2013-03-03 22:17:00,43.0,31.0,30.08,West,271,3.0,5.0,63,0.00,,,0.00,Meteo,2013-03-04 03:17:00,
2013-03-03 22:22:00,43.0,32.0,30.08,WNW,284,3.0,5.0,64,0.00,,,0.00,Meteo,2013-03-04 03:22:00,
2013-03-03 22:27:00,43.0,32.0,30.08,WNW,287,1.0,3.0,65,0.00,,,0.00,Meteo,2013-03-04 03:27:00,
2013-03-03 22:32:00,43.0,32.0,30.09,NW,313,3.0,6.0,65,0.00,,,0.00,Meteo,2013-03-04 03:32:00,
2013-03-03 22:37:00,43.0,32.0,30.09,WNW,297,3.0,6.0,65,0.00,,,0.00,Meteo,2013-03-04 03:37:00,
2013-03-03 22:42:00,43.0,32.0,30.09,West,280,4.0,7.0,65,0.00,,,0.00,Meteo,2013-03-04 03:42:00,
2013-03-03 22:47:00,43.0,32.0,30.09,NW,310,0.0,1.0,66,0.00,,,0.00,Meteo,2013-03-04 03:47:00,
2013-03-03 22:52:00,42.0,32.0,30.09,WNW,289,3.0,6.0,67,0.00,,,0.00,Meteo,2013-03-04 03:52:00,
2013-03-03 22:57:00,42.0,32.0,30.09,WNW,297,3.0,7.0,67,0.00,,,0.00,Meteo,2013-03-04 03:57:00,
2013-03-03 23:03:00,42.0,32.0,30.09,WNW,300,2.0,4.0,67,0.00,,,0.00,Meteo,2013-03-04 04:03:00,
2013-03-03 23:08:00,42.0,31.0,30.09,WNW,288,4.0,7.0,66,0.00,,,0.00,Meteo,2013-03-04 04:08:00,
2013-03-03 23:13:00,42.0,31.0,30.09,North,0,0.0,0.0,66,0.00,,,0.00,Meteo,2013-03-04 04:13:00,
2013-03-03 23:18:00,42.0,31.0,30.10,West,273,2.0,3.0,66,0.00,,,0.00,Meteo,2013-03-04 04:18:00,
2013-03-03 23:23:00,42.0,32.0,30.10,WNW,283,2.0,4.0,67,0.00,,,0.00,Meteo,2013-03-04 04:23:00,
2013-03-03 23:28:00,42.0,32.0,30.10,WNW,289,2.0,3.0,67,0.00,,,0.00,Meteo,2013-03-04 04:28:00,
2013-03-03 23:33:00,42.0,32.0,30.10,WNW,294,3.0,6.0,67,0.00,,,0.00,Meteo,2013-03-04 04:33:00,
2013-03-03 23:38:00,41.0,31.0,30.10,WNW,296,3.0,5.0,67,0.00,,,0.00,Meteo,2013-03-04 04:38:00,
2013-03-03 23:43:00,41.0,31.0,30.10,WNW,293,0.0,1.0,68,0.00,,,0.00,Meteo,2013-03-04 04:43:00,
2013-03-03 23:48:00,41.0,31.0,30.10,West,278,2.0,3.0,68,0.00,,,0.00,Meteo,2013-03-04 04:48:00,
2013-03-03 23:53:00,41.0,31.0,30.10,WNW,287,0.0,1.0,68,0.00,,,0.00,Meteo,2013-03-04 04:53:00,
2013-03-03 23:58:00,40.0,30.0,30.10,WNW,289,1.0,3.0,68,0.00,,,0.00,Meteo,2013-03-04 04:58:00,